Muskegon, MI

8:40 PM EST on November 13, 2019 (GMT -0500)
Muskegon County

Weather History for KMKG - September, 2019

Change the Weather History Date:

Monday, September 2, 2019

  Actual Average Record
Temperature  
Mean Temperature 67 °F 67 °F  
Max Temperature 78 °F 76 °F 94 °F (1913)
Min Temperature 56 °F 58 °F 33 °F (1909)
Degree Days  
Heating Degree Days 0 2  
Month to date heating degree days 1 4  
Since 1 July heating degree days 5 34  
Cooling Degree Days 2 4  
Month to date cooling degree days 2 8  
Year to date cooling degree days 547 515  
Growing Degree Days 17 (Base 50)    
Moisture  
Dew Point 58 °F    
Average Humidity 72    
Maximum Humidity 93    
Minimum Humidity 50    
Precipitation  
Precipitation 0.00 in 0.12 in 3.34 in (2010)
Month to date precipitation T 0.24  
Year to date precipitation 27.13 20.82  
Snow  
Snow 0.00 in 0.00 in - ()
Month to date snowfall 0.0 0.0  
Since 1 July snowfall 0.0 0.0  
Since 1 September snowfall 0.0 0.0  
Snow Depth 0.00 in    
Sea Level Pressure  
Sea Level Pressure 30.07 in    
Wind  
Wind Speed 3 mph ()    
Max Wind Speed 14 mph    
Max Gust Speed 20 mph    
Visibility 9.4 miles    
Events      
T = Trace of Precipitation, MM = Missing Value Source: Averaged Metar Reports

Daily Weather History Graph

Daily Weather History Graph

Search for Another Location

Airport or City:

Astronomy

Sep. 02, 2019 Rise Set
Actual Time 7:10 AM EDT 8:18 PM EDT
Civil Twilight 6:40 AM EDT 8:47 PM EDT
Nautical Twilight 6:05 AM EDT 9:22 PM EDT
Astronomical Twilight 5:28 AM EDT 9:59 PM EDT
Moon 10:57 AM EDT (9/2) 10:33 PM EDT (9/2)
Length of Visible Light 14h 06m
Length of Day
13h 08m
Waxing Crescent, 15% of the Moon is Illuminated
Sep 2
Waxing Crescent
Sep 5
First Quarter
Sep 14
Full
Sep 21
Last Quarter
Sep 28
New

Hourly Weather History & Observations

Time (EDT) Temp. Dew Point Humidity Pressure Visibility Wind Dir Wind Speed Gust Speed Precip Events Conditions
12:55 AM 59.0 °F 55.9 °F 90% 30.07 in 10.0 mi Calm Calm - N/A   Clear
1:11 AM 57.9 °F 55.0 °F 90% 30.07 in 1.5 mi Calm Calm - N/A   Clear
1:21 AM 57.9 °F 55.9 °F 93% 30.07 in 3.0 mi Calm Calm - N/A   Clear
1:55 AM 57.9 °F 55.0 °F 90% 30.07 in 10.0 mi Calm Calm - N/A   Clear
2:55 AM 57.0 °F 54.0 °F 89% 30.07 in 10.0 mi Calm Calm - N/A   Mostly Cloudy
3:55 AM 57.9 °F 54.0 °F 87% 30.06 in 10.0 mi Calm Calm - N/A   Mostly Cloudy
4:55 AM 60.1 °F 55.9 °F 86% 30.06 in 10.0 mi Calm Calm - N/A   Mostly Cloudy
5:55 AM 62.1 °F 57.9 °F 86% 30.06 in 10.0 mi WSW 4.6 mph - N/A   Overcast
6:55 AM 66.0 °F 62.1 °F 87% 30.06 in 10.0 mi WSW 4.6 mph - N/A   Overcast
7:55 AM 68.0 °F 64.0 °F 87% 30.06 in 10.0 mi SW 3.5 mph - 0.00 in   Overcast
8:55 AM 70.0 °F 63.0 °F 78% 30.07 in 10.0 mi West 8.1 mph - N/A   Overcast
9:55 AM 71.1 °F 63.0 °F 75% 30.07 in 10.0 mi West 8.1 mph - N/A   Overcast
10:55 AM 73.0 °F 62.1 °F 68% 30.08 in 10.0 mi WNW 11.5 mph - N/A   Overcast
11:55 AM 73.9 °F 62.1 °F 66% 30.08 in 10.0 mi WNW 9.2 mph - N/A   Overcast
12:55 PM 73.9 °F 61.0 °F 64% 30.08 in 10.0 mi WNW 9.2 mph - N/A   Mostly Cloudy
1:55 PM 77.0 °F 59.0 °F 54% 30.08 in 10.0 mi NW 11.5 mph - N/A   Mostly Cloudy
2:55 PM 77.0 °F 59.0 °F 54% 30.08 in 10.0 mi WNW 9.2 mph - N/A   Mostly Cloudy
3:55 PM 77.0 °F 59.0 °F 54% 30.07 in 10.0 mi WNW 9.2 mph - N/A   Mostly Cloudy
4:55 PM 75.9 °F 59.0 °F 56% 30.06 in 10.0 mi WNW 6.9 mph - N/A   Mostly Cloudy
5:55 PM 75.0 °F 55.9 °F 51% 30.07 in 10.0 mi NW 6.9 mph - N/A   Mostly Cloudy
6:55 PM 75.0 °F 57.9 °F 55% 30.06 in 10.0 mi NNW 6.9 mph - N/A   Mostly Cloudy
7:55 PM 73.0 °F 55.9 °F 55% 30.06 in 10.0 mi North 4.6 mph - N/A   Mostly Cloudy
8:55 PM 72.0 °F 55.9 °F 57% 30.06 in 10.0 mi North 5.8 mph - N/A   Mostly Cloudy
9:55 PM 70.0 °F 57.0 °F 63% 30.06 in 10.0 mi Calm Calm - N/A   Mostly Cloudy
10:55 PM 68.0 °F 57.9 °F 70% 30.06 in 10.0 mi Calm Calm - N/A   Mostly Cloudy
11:55 PM 66.9 °F 59.0 °F 76% 30.05 in 10.0 mi East 4.6 mph - N/A   Overcast